Change the Weather History Date:

Monday, February 17, 2014

  Actual Average Record
Temperature  
Mean Temperature 45 °F -  
Max Temperature 62 °F 53 °F 62 °F (2014)
Min Temperature 28 °F 31 °F 21 °F (2015)
Degree Days  
Heating Degree Days 20    
Moisture  
Dew Point 34 °F    
Average Humidity 70    
Maximum Humidity 100    
Minimum Humidity 32    
Precipitation  
Precipitation 0.00 in - - ()
Sea Level Pressure  
Sea Level Pressure 30.13 in    
Wind  
Wind Speed 3 mph (SSW)    
Max Wind Speed 14 mph    
Max Gust Speed 23 mph    
Visibility 10 miles    
Events      
Averages and records for this station are not official NWS values.
T = Trace of Precipitation, MM = Missing Value Source: NWS Daily Summary

Daily Weather History Graph

Daily Weather History Graph

Search for Another Location

Airport or City:

Trip Planner

Search our weather history database for the weather conditions in past years. The results will help you decide how hot, cold, wet, or windy it might be!

Date:

Astronomy

Feb. 17, 2014 Rise Set
Actual Time 7:22 AM EST 6:22 PM EST
Civil Twilight 6:56 AM EST 6:48 PM EST
Nautical Twilight 6:26 AM EST 7:18 PM EST
Astronomical Twilight 5:57 AM EST 7:47 PM EST
Moon 9:08 PM EST (2/17) 8:29 AM EST (2/17)
Length of Visible Light 11h 51m
Length of Day
10h 59m
Waning Gibbous, 93% of the Moon is Illuminated
Feb 17
Waning Gibbous
Feb 22
Last Quarter
Mar 1
New
Mar 8
First Quarter
Mar 16
Full

Hourly Weather History & Observations

Time (EST) Temp. Windchill Dew Point Humidity Pressure Visibility Wind Dir Wind Speed Gust Speed Precip Events Conditions
12:35 AM 30.2 °F - 26.6 °F 86% 30.18 in 10.0 mi Calm Calm - N/A   Clear
12:55 AM 28.4 °F - 26.6 °F 93% 30.18 in 10.0 mi Calm Calm - N/A   Clear
1:15 AM 30.2 °F 26.7 °F 26.6 °F 86% 30.18 in 10.0 mi NNE 3.5 mph - N/A   Clear
1:35 AM 28.4 °F - 26.6 °F 93% 30.19 in 10.0 mi Calm Calm - N/A   Clear
1:55 AM 28.4 °F - 26.6 °F 93% 30.19 in 10.0 mi Calm Calm - N/A   Clear
2:15 AM 28.4 °F 24.6 °F 26.6 °F 93% 30.19 in 10.0 mi NE 3.5 mph - N/A   Clear
2:35 AM 28.4 °F 24.6 °F 26.6 °F 93% 30.18 in 10.0 mi NE 3.5 mph - N/A   Clear
2:55 AM 30.2 °F 26.7 °F 26.6 °F 86% 30.18 in 10.0 mi NE 3.5 mph - N/A   Clear
3:15 AM 32.0 °F - 26.6 °F 80% 30.19 in 10.0 mi Calm Calm - N/A   Clear
3:35 AM 32.0 °F 28.7 °F 28.4 °F 87% 30.19 in 10.0 mi NNE 3.5 mph - N/A   Clear
3:55 AM 33.8 °F 29.6 °F 28.4 °F 81% 30.19 in 10.0 mi NNE 4.6 mph - N/A   Clear
4:15 AM 33.8 °F 29.6 °F 28.4 °F 81% 30.18 in 10.0 mi NNE 4.6 mph - N/A   Clear
4:35 AM 32.0 °F 28.7 °F 28.4 °F 87% 30.18 in 10.0 mi NNE 3.5 mph - N/A   Clear
4:55 AM 32.0 °F - 28.4 °F 87% 30.19 in 10.0 mi Calm Calm - N/A   Clear
5:15 AM 32.0 °F - 28.4 °F 87% 30.18 in 10.0 mi Calm Calm - N/A   Clear
5:35 AM 32.0 °F - 28.4 °F 87% 30.19 in 10.0 mi Calm Calm - N/A   Clear
5:55 AM 32.0 °F - 28.4 °F 87% 30.19 in 10.0 mi Calm Calm - N/A   Clear
6:15 AM 32.0 °F 28.7 °F 28.4 °F 87% 30.19 in 10.0 mi NNE 3.5 mph - N/A   Clear
6:35 AM 30.2 °F 26.7 °F 28.4 °F 93% 30.19 in 10.0 mi NNE 3.5 mph - N/A   Clear
6:55 AM 30.2 °F - 28.4 °F 93% 30.20 in 10.0 mi Calm Calm - N/A   Clear
7:15 AM 30.2 °F 26.7 °F 28.4 °F 93% 30.20 in 10.0 mi NNE 3.5 mph - N/A   Clear
7:35 AM 30.2 °F - 26.6 °F 86% 30.21 in 10.0 mi Calm Calm - N/A   Clear
7:55 AM 30.2 °F - 28.4 °F 93% 30.22 in 10.0 mi Calm Calm - N/A   Clear
8:15 AM 32.0 °F - 28.4 °F 87% 30.23 in 10.0 mi Calm Calm - N/A   Clear
8:35 AM 33.8 °F - 28.4 °F 81% 30.23 in 10.0 mi Calm Calm - N/A   Clear
8:55 AM 33.8 °F 29.6 °F 30.2 °F 87% 30.23 in 10.0 mi NE 4.6 mph - N/A   Clear
9:15 AM 35.6 °F 30.7 °F 30.2 °F 81% 30.22 in 10.0 mi NE 5.8 mph - N/A   Clear
9:35 AM 37.4 °F 34.9 °F 30.2 °F 75% 30.21 in 10.0 mi NE 3.5 mph - N/A   Clear
9:55 AM 39.2 °F - 30.2 °F 70% 30.20 in 10.0 mi Calm Calm - N/A   Clear
10:15 AM 42.8 °F - 30.2 °F 61% 30.20 in 10.0 mi Calm Calm - N/A   Clear
10:35 AM 42.8 °F - 30.2 °F 61% 30.20 in 10.0 mi Calm Calm - N/A   Clear
10:55 AM 46.4 °F - 32.0 °F 57% 30.20 in 10.0 mi Calm Calm - N/A   Clear
11:15 AM 48.2 °F - 30.2 °F 50% 30.20 in 10.0 mi Variable 3.5 mph - N/A   Clear
11:35 AM 48.2 °F - 32.0 °F 54% 30.19 in 10.0 mi Variable 4.6 mph - N/A   Clear
11:55 AM 51.8 °F - 32.0 °F 47% 30.17 in 10.0 mi Variable 4.6 mph - N/A   Clear
12:15 PM 51.8 °F - 32.0 °F 47% 30.16 in 10.0 mi SW 5.8 mph - N/A   Clear
12:35 PM 53.6 °F - 32.0 °F 44% 30.15 in 10.0 mi WSW 6.9 mph - N/A   Clear
12:55 PM 55.4 °F - 33.8 °F 44% 30.13 in 10.0 mi Variable 5.8 mph - N/A   Clear
1:15 PM 55.4 °F - 33.8 °F 44% 30.10 in 10.0 mi Variable 4.6 mph - N/A   Scattered Clouds
1:35 PM 57.2 °F - 33.8 °F 41% 30.08 in 10.0 mi Variable 4.6 mph - N/A   Mostly Cloudy
1:55 PM 59.0 °F - 33.8 °F 39% 30.06 in 10.0 mi SW 10.4 mph - N/A   Scattered Clouds
2:15 PM 60.8 °F - 33.8 °F 36% 30.04 in 10.0 mi Variable 6.9 mph - N/A   Clear
2:35 PM 62.6 °F - 33.8 °F 34% 30.02 in 10.0 mi SW 5.8 mph - N/A   Clear
2:55 PM 62.6 °F - 32.0 °F 32% 30.02 in 10.0 mi SSW 12.7 mph - N/A   Mostly Cloudy
3:15 PM 62.6 °F - 32.0 °F 32% 30.02 in 10.0 mi SSW 13.8 mph 21.9 mph N/A   Overcast
3:35 PM 60.8 °F - 32.0 °F 34% 30.01 in 10.0 mi SSW 9.2 mph - N/A   Overcast
3:55 PM 60.8 °F - 32.0 °F 34% 30.00 in 10.0 mi SSW 10.4 mph - N/A   Overcast
4:15 PM 60.8 °F - 32.0 °F 34% 30.00 in 10.0 mi South 9.2 mph - N/A   Overcast
4:35 PM 60.8 °F - 32.0 °F 34% 30.00 in 10.0 mi Variable 5.8 mph - N/A   Overcast
4:55 PM 60.8 °F - 32.0 °F 34% 30.01 in 10.0 mi South 8.1 mph 23.0 mph N/A   Overcast
5:15 PM 60.8 °F - 32.0 °F 34% 30.02 in 10.0 mi Variable 4.6 mph - N/A   Overcast
5:35 PM 60.8 °F - 32.0 °F 34% 30.01 in 10.0 mi South 8.1 mph - N/A   Overcast
5:55 PM 59.0 °F - 32.0 °F 36% 30.00 in 10.0 mi South 10.4 mph - N/A   Overcast
6:15 PM 59.0 °F - 33.8 °F 39% 30.01 in 10.0 mi South 10.4 mph - N/A   Overcast
6:35 PM 55.4 °F - 39.2 °F 54% 30.02 in 10.0 mi South 10.4 mph - N/A   Overcast
6:55 PM 55.4 °F - 39.2 °F 54% 30.03 in 10.0 mi Variable 5.8 mph - N/A   Overcast
7:15 PM 51.8 °F - 42.8 °F 71% 30.03 in 10.0 mi South 6.9 mph - N/A   Overcast
7:35 PM 51.8 °F - 44.6 °F 76% 30.04 in 5.0 mi SSW 6.9 mph - N/A   Overcast
7:55 PM 50.0 °F - 46.4 °F 87% 30.04 in 7.0 mi SSW 3.5 mph - N/A   Overcast
8:15 PM 50.0 °F - 46.4 °F 87% 30.05 in 5.0 mi WSW 6.9 mph - N/A   Overcast
8:55 PM 50.0 °F - 48.2 °F 94% 30.08 in 4.0 mi WSW 8.1 mph - N/A   Mostly Cloudy
9:15 PM 50.0 °F - 48.2 °F 94% 30.10 in 7.0 mi Variable 5.8 mph - N/A   Overcast
9:35 PM 51.8 °F - 48.2 °F 88% 30.11 in 10.0 mi Variable 6.9 mph - N/A   Overcast
9:55 PM 50.0 °F - 48.2 °F 94% 30.11 in 10.0 mi Variable 4.6 mph - N/A   Mostly Cloudy
10:15 PM 51.8 °F - 48.2 °F 88% 30.12 in 10.0 mi West 3.5 mph - N/A   Mostly Cloudy
10:35 PM 50.0 °F - 48.2 °F 94% 30.12 in 10.0 mi Calm Calm - N/A   Overcast
10:55 PM 50.0 °F - 48.2 °F 94% 30.13 in 10.0 mi SSW 3.5 mph - N/A   Mostly Cloudy
11:15 PM 50.0 °F - 50.0 °F 100% 30.14 in 10.0 mi WSW 3.5 mph - N/A   Mostly Cloudy
11:35 PM 51.8 °F - 50.0 °F 94% 30.15 in 10.0 mi West 4.6 mph - N/A   Overcast
11:55 PM 51.8 °F - 46.4 °F 82% 30.16 in 10.0 mi WNW 4.6 mph - N/A   Mostly Cloudy